Regional Weather Roundup
Issued by NWS Northern Indiana

Home | Current Version | Previous Version | Text Only | Print | Product List | Glossary On
Versions: 1 2 3 4 5 6 7 8 9 10 11 12 13 14 15 16 17 18 19 20 21 22 23 24 25 26 27 28 29 30 31 32 33 34 35 36 37 38 39 40 41 42 43 44 45 46 47 48 49 50
000
ASUS43 KIWX 202210
RWRIWX

KIWX WEATHER ROUNDUP
NATIONAL WEATHER SERVICE NORTHERN INDIANA
600 PM EDT MON OCT 20 2014

NOTE: "FAIR" INDICATES FEW OR NO CLOUDS BELOW 12,000 FEET WITH NO
SIGNIFICANT WEATHER AND/OR OBSTRUCTIONS TO VISIBILITY.

* THESE STATIONS ARE NOT UNDER NWS QUALITY CONTROL. THEY ALSO MAY NOT
  REPORT WEATHER SUCH AS PRECIPITATION OR FOG.

INZ001>027-202300-
NORTHERN INDIANA

CITY           SKY/WX    TMP DP  RH WIND       PRES   REMARKS
GARY*          MOCLDY    57  50  77 N10       29.90R
VALPARAISO     CLOUDY    55  48  77 N10       29.89R
MICHIGAN CITY* CLOUDY    54  46  76 N8        29.90R
LAPORTE*       CLOUDY    56  49  78 N13       29.89R
KNOX*          CLOUDY    57  47  68 N13G18    29.88R
SOUTH BEND     CLOUDY    55  48  77 NW12      29.89R
ELKHART*       CLOUDY    55  46  71 NW8       29.87R
GOSHEN         CLOUDY    57  48  72 NW13      29.86R
MONTICELLO*    CLOUDY    64  48  56 NW9       29.85R
LOGANSPORT*    CLOUDY    63  45  51 NW6       29.86R
ROCHESTER*     MOCLDY    61  48  63 NW13      29.87R
WARSAW*        MOCLDY    59  46  63 NW14      29.86R
ANGOLA*        MOCLDY    55  46  71 NW3       29.84R
FORT WAYNE     MOCLDY    61  49  64 W6        29.83S
HUNTINGTON*    MOCLDY    61  49  64 NW5       29.83R
PERU/GRISSOM   MOCLDY    63  51  63 NW10      29.84R
MARION*        PTCLDY    63  47  55 NW8       29.84R

$$
INZ028>050-202300-
CENTRAL INDIANA

CITY           SKY/WX    TMP DP  RH WIND       PRES   REMARKS
LAFAYETTE      PTSUNNY   64  48  56 NW9       29.86R
KOKOMO*        MOCLDY    64  46  52 NW13      29.84R
MUNCIE*        MOCLDY    63  48  58 NW7       29.83R
INDIANAPOLIS   PTCLDY    66  44  45 W13       29.85R

$$
MIZ043>046-050>051-056>058-064>065-071>073-077>080-202300-
SOUTHWEST LOWER MICHIGAN

CITY           SKY/WX    TMP DP  RH WIND       PRES   REMARKS
BATTLE CREEK   CLOUDY    58  48  69 W14       29.83R
BENTON HARBOR  CLOUDY    53  47  79 VRB5      29.89R
COLDWATER*     MOCLDY    58  51  77 W7        29.83R
HILLSDALE*     MOCLDY    55  53  91 W5        29.82S
HOLLAND        CLOUDY    55  46  71 NW13G21   29.87R
GRAND RAPIDS   CLOUDY    57  46  66 NW12      29.84R
KALAMAZOO      CLOUDY    56  48  74 W8        29.84R
STURGIS*       CLOUDY    55  48  76 W9G16     29.84R
THREE RIVERS*  CLOUDY    57  49  75 W14       29.85R

$$
OHZ001>008-015>018-024>025-202300-
NORTHWEST OHIO

CITY           SKY/WX    TMP DP  RH WIND       PRES   REMARKS
WAUSEON*       CLOUDY    54  52  94 W6        29.83R FOG
DEFIANCE       CLOUDY    56  51  84 CALM      29.83R
FINDLAY        CLOUDY    55  51  86 SW7       29.82S
TOLEDO EXPRESS CLOUDY    54  50  86 CALM      29.82S
TOLEDO METCALF CLOUDY    54  49  83 W5        29.83S
LIMA           CLOUDY    55  52  89 S6        29.84S

$$
AND FOR LAKE MICHIGAN COASTAL AND OPEN LAKE BUOY OBSERVATIONS

STATION/POSITION TEMP    WIND        PRES    VSBY  WAVE
                 AIR SEA DIR/SP/G                  HT/PER
                 (F)     (DEG/KT/KT) (MB)    (MI)  (FT/S)
CALUMET HARBOR    55     350/  9/ 13 1011.4R
MICHIGAN CITY     53     350/ 18/ 20   N/A
SAINT JOSEPH      54                 1012.5S
SOUTH LAKE BUOY   53 55  340/ 17/ 19 1012.3R         3/ 5

$$
&&



USA.gov is the U.S. government's official web portal to all federal, state and local government web resources and services.